[Iaude] MPEC J300: 2024 JZ16 [a=1.96,e=0.73,i=4.9,H=23.6]
    mpec at cfa.harvard.edu 
    mpec at cfa.harvard.edu
       
    Mon May 13 19:49:09 EDT 2024
    
    
  
M.P.E.C. 2024-J300                                 Issued 2024 May 13, 23:47 UT
     The Minor Planet Electronic Circulars contain information on unusual
         minor planets, routine data on comets and natural satellites,
         and occasional editorial announcements.  They are published
    on behalf of Division F of the International Astronomical Union by the
          Minor Planet Center, Smithsonian Astrophysical Observatory,
                          Cambridge, MA 02138, U.S.A.
			  
             Prepared using the Tamkin Foundation Computer Network
                              MPC at CFA.HARVARD.EDU
            URL https://www.minorplanetcenter.net/    ISSN 1523-6714
                                   2024 JZ16                                    
Observations:
     K24J16Z*1C2024 05 12.39613317 41 02.497+37 33 46.01         20.58GVEJ300G96
     K24J16Z 1C2024 05 12.40137717 41 09.611+37 36 11.99         19.76GVEJ300G96
     K24J16Z 1C2024 05 12.40660417 41 16.555+37 38 34.87         19.79GVEJ300G96
     K24J16Z KC2024 05 12.43407117 41 53.628+37 51 11.52         20.24GVEJ300I52
     K24J16Z KC2024 05 12.43466217 41 54.460+37 51 28.19         19.28GVEJ300I52
     K24J16Z KC2024 05 12.43524717 41 55.259+37 51 44.03               VEJ300I52
     K24J16Z KC2024 05 12.43582917 41 56.026+37 51 59.90         20.18GVEJ300I52
     K24J16Z KC2024 05 12.46555217 42 36.547+38 05 38.62         20.14GVEJ300I52
     K24J16Z KC2024 05 12.46613517 42 37.364+38 05 54.42         20.48GVEJ300I52
     K24J16Z KC2024 05 12.46671617 42 38.146+38 06 10.66               VEJ300I52
     K24J16Z KC2024 05 12.46730617 42 38.974+38 06 27.47         20.84GVEJ300I52
     K24J16Z 1C2024 05 12.87164 17 53 07.50 +41 15 48.1          20.6 VXEJ300033
     K24J16Z 1C2024 05 12.87224 17 53 08.51 +41 16 05.6          21.0 VXEJ300033
     K24J16Z 1C2024 05 12.87285 17 53 09.48 +41 16 23.7          20.4 VXEJ300033
     K24J16Z 1C2024 05 12.87378 17 53 11.02 +41 16 50.8          20.5 VXEJ300033
     K24J16Z KC2024 05 12.94992617 55 18.65 +41 53 52.0                XEJ300958
     K24J16Z KC2024 05 12.95806517 55 32.24 +41 57 48.4          19.4 GXEJ300958
     K24J16Z KC2024 05 12.96617217 55 45.79 +42 01 47.2          19.5 GXEJ300958
     K24J16Z KB2024 05 13.06218817 58 29.26 +42 48 37.1          20.0 GXEJ300I93
     K24J16Z KB2024 05 13.06704517 58 37.68 +42 50 59.5          19.7 GXEJ300I93
     K24J16Z KB2024 05 13.07187517 58 46.05 +42 53 20.9          19.1 GXEJ300I93
     K24J16Z 1C2024 05 13.07991 17 58 58.43 +42 57 04.2          20.4 VXEJ300033
     K24J16Z 1C2024 05 13.08046 17 58 59.36 +42 57 19.6          20.3 VXEJ300033
     K24J16Z 1C2024 05 13.08100 17 59 00.33 +42 57 36.1          20.6 VXEJ300033
     K24J16Z KC2024 05 13.25207518 04 21.64 +44 21 29.8          20.4 GVEJ300H21
     K24J16Z KC2024 05 13.25400418 04 25.25 +44 22 27.0          20.6 GVEJ300H21
     K24J16Z KC2024 05 13.25574018 04 28.50 +44 23 19.0          20.5 GVEJ300H21
     K24J16Z KC2024 05 13.25786118 04 32.46 +44 24 21.8          20.7 GVEJ300H21
     K24J16Z KC2024 05 13.25991818 04 36.29 +44 25 23.0          21.0 GVEJ300H21
     K24J16Z  C2024 05 13.32891718 06 49.899+44 59 34.96         20.1 GVEJ300H01
     K24J16Z  C2024 05 13.33573718 07 02.995+45 02 58.11         20.0 GVEJ300H01
     K24J16Z  C2024 05 13.34297318 07 16.918+45 06 33.74         20.2 GVEJ300H01
     K24J16Z KC2024 05 13.34631618 07 24.006+45 08 14.32         21.09GVEJ300I52
     K24J16Z KC2024 05 13.34866118 07 28.535+45 09 24.41               VEJ300I52
     K24J16Z KC2024 05 13.34984418 07 30.745+45 09 59.98         20.43GVEJ300I52
     K24J16Z  C2024 05 13.35426318 07 38.683+45 12 09.61         20.3 GVEJ300H01
     K24J16Z 1C2024 05 13.85113 18 25 55.98 +49 16 49.3          20.3 VXEJ300033
     K24J16Z 1C2024 05 13.85171 18 25 57.47 +49 17 06.9          20.2 VXEJ300033
     K24J16Z 1C2024 05 13.85227 18 25 58.83 +49 17 23.9          20.5 VXEJ300033
     K24J16Z 1C2024 05 13.85283 18 26 00.25 +49 17 40.8          20.9 VXEJ300033
Observer details:
033 Karl Schwarzschild Observatory, Tautenburg.  Observers C. Heogner, F.
    Ludwig, M. Hartmann, B. Stecklum.  Measurer B. Stecklum.  1.34-m f/3
    Schmidt + CCD.
958 Observatoire de Dax.  Observers P. Dupouy, J. B. de Vanssay.  Measurer P.
    Dupouy.  0.43-m f/2.7 Reflector + CCD.
G96 Mt. Lemmon Survey.  Observer K. W. Wierzchos.  Measurers T. Beuden, V. F.
    Carvajal, D. Fay, J. B. Fazekas, D. C. Fuls, A. R. Gibbs, A. D. Grauer, H.
    Groeller, J. K. Hogan, R. A. Kowalski, S. M. Larson, G. J. Leonard, D.
    Rankin, R. L. Seaman, F. C. Shelly, K. W. Wierzchos.  1.5-m reflector +
    10K CCD.
H01 Magdalena Ridge Observatory, Socorro.  Observers W. H. Ryan, E. V. Ryan.
    Measurer W. H. Ryan.  2.4-m f/8.9 Ritchey-Chretien + CCD.
H21 Astronomical Research Observatory, Westfield.  Observer R. Holmes.
    Measurers T. Linder, R. Holmes, L. Horn.  0.76-m f/3.0 astrograph + CCD.
I52 Steward Observatory, Mt. Lemmon Station.  Observer T. Beuden.  Measurers
    T. Beuden, V. F. Carvajal, D. Fay, J. B. Fazekas, D. C. Fuls, A. R. Gibbs,
    A. D. Grauer, H. Groeller, J. K. Hogan, R. A. Kowalski, S. M. Larson, G.
    J. Leonard, D. Rankin, R. L. Seaman, F. C. Shelly, K. W. Wierzchos.  1.0-m
    prime focus + CCD.
I93 St Pardon de Conques.  Observer F. Losse.  0.40-m f/3.7 reflector + CMO.
Orbital elements:
2024 JZ16                                                Earth MOID = 0.0680 AU
Epoch 2024 Mar. 31.0 TT = JDT 2460400.5                 Veres                   
M 326.57717              (2000.0)            P               Q                  
n   0.35988336     Peri.  148.64667     +0.88477914     +0.46597963             
a   1.9574689      Node   183.59245     -0.44333834     +0.83812493             
e   0.7269542      Incl.    4.91862     -0.14358621     +0.28356583             
P   2.74           H   23.67          G   0.15           U   9                  
Residuals in seconds of arc
240512 G96 (1.1-  1.5-)   240512 033  0.2+  0.1-    240513 H21  0.0   0.2+
240512 G96  0.1+  0.2+    240512 958  0.4-  0.4+    240513 H01  0.1-  0.0
240512 G96  0.6-  0.7-    240512 958  1.0-  1.4-    240513 H01  0.0   0.1-
240512 I52  0.1-  0.1+    240512 958  1.7-  0.2+    240513 H01  0.0   0.0
240512 I52  0.3+  0.5+    240513 I93  0.2-  0.4-    240513 I52  0.4+  0.0
240512 I52  0.4+  0.2+    240513 I93  0.0   0.2-    240513 I52  0.4+  0.2+
240512 I52  0.1+  0.1+    240513 I93  0.0   0.3-    240513 I52  0.4-  0.5+
240512 I52  0.3-  0.1+    240513 033  0.1+  0.1+    240513 H01  0.2-  0.2-
240512 I52  0.1-  0.2-    240513 033  0.2-  0.6-    240513 033  0.8-  0.4-
240512 I52  0.3-  0.1+    240513 033  0.1+  0.1+    240513 033  0.0   0.2-
240512 I52  0.1-  0.6+    240513 H21  0.1+  0.2+    240513 033  0.0   0.0
240512 033  0.0   0.6-    240513 H21  0.2+  0.0     240513 033  0.6+  0.1+
240512 033  0.3+  0.6-    240513 H21  0.2+  0.4+
240512 033  0.0   0.2-    240513 H21  0.2+  0.2+
Ephemeris:
2024 JZ16                a,e,i = 1.96, 0.73, 5                   q = 0.5345
Date    TT    R. A. (2000) Decl.     Delta      r    Elong.  Phase     V
2024 04 13    15 50 48.5 -12 20 58   0.4622  1.4042   144.3    24.6    23.9
...
2024 04 28    16 10 05.1 -05 02 19   0.2428  1.2262   151.9    22.8    22.1
...
2024 05 06    16 33 24.7 +07 13 46   0.1397  1.1268   145.6    30.4    21.0
...
2024 05 12    17 32 28.5 +34 36 15   0.08033 1.0504   118.1    58.0    20.4
2024 05 13    17 56 36.8 +42 18 10   0.07460 1.0376   109.4    66.7    20.5
2024 05 14    18 31 59.1 +50 30 47   0.07098 1.0247    99.5    76.6    20.7
...
2024 05 20    01 22 39.4 +57 28 38   0.09706 0.9469    45.9   129.8    24.2
...
2024 05 28    02 58 50.6 +38 08 02   0.1906  0.8430    24.1   150.5    28.2
...
2024 06 12    03 35 12.1 +27 20 11   0.4148  0.6603    24.4   140.6    27.8
M. P. C. Staff               (C) Copyright 2024 MPC           M.P.E.C. 2024-J300
    
    
More information about the Iaude
mailing list